Regional Weather Roundup
Issued by NWS

Home | Current Version | Previous Version | Text Only | Print | Product List | Glossary Off
Versions: 1 2 3 4 5 6 7 8 9 10 11 12 13 14 15 16 17 18 19 20 21 22 23 24 25 26 27

000
ASUS45 KBOU 220607
RWRCO

WEATHER ROUNDUP FOR COLORADO
NATIONAL WEATHER SERVICE DENVER/BOULDER CO
1200 AM MDT WED OCT 22 2014

NOTE: "FAIR" INDICATES FEW OR NO CLOUDS BELOW 12000 FEET WITH NO
SIGNIFICANT WEATHER AND/OR OBSTRUCTIONS TO VISIBILITY.

COZ001>005-013-030-031-220700-
...NORTHWEST COLORADO...

CITY           SKY/WX    TMP DP  RH WIND       PRES   REMARKS
CRAIG          RAIN      46  42  86 S7        30.15R
HAYDEN         CLOUDY    43  39  87 S5        30.16R
MEEKER         HVY RAIN  45  43  93 MISG      30.17R FOG
MOUNT WERNER   NOT AVBL
STEAMBOAT SPGS CLOUDY    42  40  95 E7        30.16F
WALDEN         CLOUDY    37  36  93 CALM      30.16R
$$

COZ006>008-011-220700-
...WEST CENTRAL VALLEYS...

CITY           SKY/WX    TMP DP  RH WIND       PRES   REMARKS
GRAND JUNCTION CLOUDY    51  43  74 SW5       30.03R
MONTROSE       CLEAR     48  41  76 SE9       30.08R
EAGLE          PTCLDY    45  39  81 CALM      30.12R
RIFLE          LGT RAIN  50  42  74 NW13G32   30.11R
DELTA          CLEAR     55  43  63 E7        30.05S
NUCLA          CLEAR     50  39  66 E8        30.11S
$$

COZ017>023-064>068-220700-
...SOUTHWEST COLORADO...

CITY           SKY/WX    TMP DP  RH WIND       PRES   REMARKS
DURANGO        MOCLDY    45  41  86 NE3       30.15R
CORTEZ         MOCLDY    49  42  77 E5        30.10R
PAGOSA SPRINGS CLOUDY    45  45  99 CALM      30.21R
TELLURIDE      NOT AVBL
WOLF CREEK PAS SNOW      32  32 100 SW20        N/A  VSB<1/4 WCI  20
$$

COZ009-010-012-014-032>034-037-058>063-220700-
...CENTRAL COLORADO...

CITY           SKY/WX    TMP DP  RH WIND       PRES   REMARKS
ASPEN          PTCLDY    41  37  86 SW3       30.15F
BUENA VISTA    MOCLDY    43  38  85 SW6       30.16F
COPPER MTN     LGT SNOW  34  30  86 W31G41    30.31F VSB 3/4 WCI  20
BERTHOUD PASS  FAIR      30  27  86 W25       30.31S WCI  16
COTTONWOOD PAS MOCLDY    45  34  65 SE5       30.23F
GUNNISON       PTCLDY    39  34  81 CALM      30.20S
KREMMLING      CLOUDY    46  36  66 N13         N/A
LEADVILLE      PTCLDY    33  32  96 NE8       30.23R WCI  26
MONARCH PASS   FOG       32  32 100 MISG      30.42S VSB<1/4
SALIDA         MOCLDY    46  44  91 CALM      30.21F
SUNLIGHT       CLOUDY    39  36  87 CALM      30.27S THUNDER
WILKERSON PASS NOT AVBL
$$

COZ069>075-220700-
...SAN LUIS VALLEY/SANGRE DE CRISTO MOUNTAINS...

CITY           SKY/WX    TMP DP  RH WIND       PRES   REMARKS
ALAMOSA        CLOUDY    49  39  68 S8        30.15R
LA VETA PASS   MOCLDY    39  34  81 S12G26    30.23R
SAGUACHE       MOCLDY    45  37  76 NW8       30.17R
$$

COZ035-036-038>040-220700-
...NORTHERN COLORADO FRONT RANGE...

CITY           SKY/WX    TMP DP  RH WIND       PRES   REMARKS
DENVER INTL AP CLOUDY    56  39  53 CALM      29.97R
DMNS CITY PARK   N/A     57  40  53 CALM      29.98R
AURORA         MOCLDY    54  40  59 S5        29.99S
FRONT RANGE AP CLOUDY    55  41  58 W9        29.98S
ERIE MUNI ARPT CLOUDY    54  49  82 SW6       29.97R
BOULDER MUN AP CLOUDY    57  41  54 CALM      29.96R
CENTENNIAL     CLOUDY    53  41  63 S7        29.99S
BROOMFIELD     LGT RAIN  55  45  67 E9        29.99R
FORT COLLINS   CLOUDY    57  43  58 N8        29.97S
LONGMONT       CLOUDY    56  46  69 NW10      29.96F
$$

COZ041-046-047-076>085-087-088-220700-
...PIKES PEAK/PALMER DIVIDE AND SOUTHERN FOOTHILLS...

CITY           SKY/WX    TMP DP  RH WIND       PRES   REMARKS
COLO. SPRINGS  CLOUDY    57  39  51 N12       30.00F
A. F. ACADEMY  CLOUDY    56  36  46 VRB3      30.02S
ELLICOTT       CLOUDY    50  41  71 N6        29.99S
FALCON         CLOUDY    55  37  50 NW14      30.05S
FORT CARSON    CLOUDY    51  38  60 NW3       29.98S
LIMON          MOCLDY    50  43  77 W5        29.99R
MONUMENT HILL  CLOUDY    50  37  62 W8        30.05S
TRINIDAD       PTCLDY    57  44  62 SW13      30.01F
$$

COZ042>045-048>051-090-091-220700-
...NORTHEAST COLORADO...

CITY           SKY/WX    TMP DP  RH WIND       PRES   REMARKS
GREELEY ARPT   CLOUDY    55  43  62 N7        29.96R
AKRON          MOCLDY    55  43  63 S10       29.91S
BURLINGTON     CLEAR     58  44  60 S16       29.95F
WRAY           CLEAR     62  46  55 S12       29.90S
STERLING       MOCLDY    59  45  58 W7G22     29.90R
HOLYOKE        CLEAR     55  45  67 S6        29.90S
FORT MORGAN    MOCLDY    60  42  50 NW21      29.93R
$$

COZ086-089-092>099-220700-
...SOUTHEAST COLORADO...

CITY           SKY/WX    TMP DP  RH WIND       PRES   REMARKS
PUEBLO         MOCLDY    52  41  66 W7        29.93S
LA JUNTA       PTCLDY    64  48  56 S18G26    29.93S
LAMAR          CLEAR     61  48  62 S18G26    29.92F
SPRINGFIELD      N/A     55  49  80 SW9       30.01F
$$



USA.gov is the U.S. government's official web portal to all federal, state and local government web resources and services.